Regional Weather Roundup
Issued by NWS Sterling, VA

Home | Current Version | Previous Version | Graphics & Text | Print | Product List | Glossary On
Versions: 1 2 3 4 5 6 7 8 9 10 11 12 13 14 15 16 17 18 19 20 21 22 23 24 25 26 27 28 29 30 31 32 33 34 35 36 37 38 39 40 41 42 43 44 45 46 47 48 49 50
361
ASUS41 KLWX 130310
RWRLWX

REGIONAL WEATHER ROUNDUP
NATIONAL WEATHER SERVICE BALTIMORE MD/WASHINGTON DC
1000 PM EST FRI FEB 12 2016

Note: "FAIR" indicates few or no clouds below 12,000 feet
with no significant weather and/or obstructions to visibility.
 TC=TEMPERATURE CELSIUS

 * =Non NWS site. Station does not report precipitation (e.g. rain,
    snow, etc.), thunder, or fog.

DCZ001-MDZ009-015-VAZ040>042-051-053>054-130400-
WASHINGTON METRO

CITY           SKY/WX    TMP DP  RH WIND       PRES   REMARKS
WASHINGTON NAT CLOUDY    29  12  49 SW6       30.03R
DULLES         FLURRIES  26  17  68 NW12      30.01R WCI  16
ANDREWS AFB    CLOUDY    26  12  55 W5        29.99R
FT BELVOIR     MOCLDY    27  14  59 CALM      30.02R
QUANTICO       CLOUDY    30  14  51 NW3       30.03R
COLLEGE PARK*  CLOUDY    28  18  64 N6        30.02R
LEESBURG*      CLOUDY    28  27  93 CALM      30.01S
MANASSAS*      CLOUDY    28  18  64 NW3       30.02R
GAITHERSBURG*  CLOUDY    21  14  73 CALM      30.03S

$$

MDZ006>007-011-014-130400-
BALTIMORE METRO

CITY           SKY/WX    TMP DP  RH WIND       PRES   REMARKS
BWI AIRPORT    CLOUDY    24  15  68 W5        30.00S
MD SCIENCE CTR   N/A     26  17  68 MISG      30.02R
MARTIN STATE   CLEAR     25  21  86 CALM      30.02S
ANNAPOLIS      CLOUDY    27  18  69 CALM      30.01S
FORT MEADE*    CLOUDY    27  18  69 CALM      30.03S

$$

MDZ012-015-019>023-130400-
MARYLAND EASTERN SHORE

CITY           SKY/WX    TMP DP  RH WIND       PRES   REMARKS
OCEAN CITY     CLOUDY    23  20  88 CALM      30.01S
SALISBURY      CLOUDY    24  18  77 CALM      30.00F
BAY BRIDGE AP*   N/A     28  18  64 CALM      30.01S
CAMBRIDGE*     CLOUDY    27  18  69 CALM      30.00S
EASTON*        CLOUDY    27  16  64 CALM      30.04S

$$

MDZ017>025-130400-
SOUTHERN MARYLAND

CITY           SKY/WX    TMP DP  RH WIND       PRES   REMARKS
PATUXENT RIVER CLOUDY    26  18  71 SW3       30.01S
ST INIGOES     CLOUDY    27  20  75 SW3       30.00F
LEONARDTOWN*     N/A     27  19  74 CALM      30.02R

$$

MDZ003>005-130400-
NORTH CENTRAL MARYLAND

CITY           SKY/WX    TMP DP  RH WIND       PRES   REMARKS
FREDERICK*     FLURRIES  25  23  93 CALM      30.03F
HAGERSTOWN APT CLOUDY    23  16  74 W7        29.96F
WESTMINSTER*   LGT SNOW  19  18  93 SW5       29.96S

$$

MDZ501>502-130400-
WESTERN MARYLAND

CITY           SKY/WX    TMP DP  RH WIND       PRES   REMARKS
OAKLAND*       CLOUDY    12  10  92 W14G28    29.82S FOG     WCI  -3
CUMBERLAND*    CLOUDY    27  14  59 W12       30.01F WCI  16

$$

VAZ025>031-130400-
SHENANDOAH VALLEY

CITY           SKY/WX    TMP DP  RH WIND       PRES   REMARKS
WINCHESTER*    CLOUDY    27  19  74 W13       29.97F WCI  16
FRONT ROYAL*   CLOUDY    25  21  86 CALM      29.98S
LURAY*         CLOUDY    23  21  93 CALM      29.96F
NEW MARKET*    CLOUDY    28  13  52 NW5       29.96S
STAUNTON*      CLOUDY    33  13  44 W10       29.97S WCI  25
WAYNESBORO*    CLOUDY    29  10  46 W8G18     29.93S WCI  21

$$

WVZ021-048>050-054>055-130400-
EASTERN WEST VIRGINIA PANHANDLE

CITY           SKY/WX    TMP DP  RH WIND       PRES   REMARKS
MARTINSBURG    CLOUDY    25  15  66 W13       29.98F WCI  14
PETERSBURG*    FLURRIES  26  14  60 CALM      29.99S

$$

VAZ036>039-050-130400-
CENTRAL FOOTHILLS

CITY           SKY/WX    TMP DP  RH WIND       PRES   REMARKS
CHARLOTTESVILL CLOUDY    29  18  63 N3        29.97R
CULPEPER*      CLOUDY    27  15  58 CALM      30.01S
ORANGE*        FLURRIES  30  21  69 CALM      30.01R
GORDONSVILLE*  CLOUDY    28  20  72 CALM      29.99R
WARRENTON*     CLOUDY    29  20  68 NW7       30.00R

$$

VAZ055>057-130400-
NORTH AND CENTRAL PIEDMONT

CITY           SKY/WX    TMP DP  RH WIND       PRES   REMARKS
FREDERICKSBRG* CLOUDY    28  16  61 CALM      30.01R
STAFFORD*      CLOUDY    26  15  65 CALM      30.04S

$$

NCZ024-NYZ072-PAZ021-071-VAZ022-071-130400-
OTHER REGIONAL OBSERVATIONS

CITY           SKY/WX    TMP DP  RH WIND       PRES   REMARKS
NEW YORK CITY  CLOUDY    23   4  44 W8        29.96F WCI  14
PHILADELPHIA   CLOUDY    23  16  74 SW7       30.00
PITTSBURGH     LGT SNOW  19  15  84 W16G22    29.95R VSB 3/4 WCI   4
ROANOKE        CLOUDY    32  17  54 W10G18    30.00S WCI  24
RICHMOND       CLOUDY    26  19  74 CALM      30.00S
RALEIGH        MOCLDY    31  22  69 SW5       30.04S

$$

ANZ530>537-130400-
MARINE OBSERVATIONS

STATION/POSITION TIME  TEMP    WIND        PRES
                       AIR SEA DIR/SP/G
                 (UTC) (F)     (DEG/KT/KT) (MB)
THOMAS PT LIGHT  0300   28 36  260/  7/  9 1017.0R
BALT KEY BRIDGE  0200   26                 1016.3F
COVE POINT       0200   26                 1016.7F
LEWISETTA        0200   27 37              1016.0F
SOLOMONS ISLAND  0200   28 39                N/A
PINEY POINT      0200          230/  6/  7   N/A

$$





USA.gov is the U.S. government's official web portal to all federal, state and local government web resources and services.